Home   Weather   Höxter   Past weeks

Flag for Germany Past Weather in Höxter, North Rhine-Westphalia, Germany — Yesterday and Last 2 Weeks

Now
19 °F

Clear.


Feels Like: 19 °F
Forecast: 22 / 29 °F
Wind: 1 mph from North

Location: Kassel / Calden

Current Time: Jan 22, 2017 at 7:25:20 pm

Latest Report: Jan 22, 2017 at 6:50 pm


Visibility: 4 mi

Pressure: 30.24 "Hg

Humidity: 100%

Dew Point: 19 °F

Location of HöxterLocation

Past Weather in Höxter — Graph

°F

Höxter Temperature Yesterday

Maximum temperature yesterday: 32 °F (at 3:20 pm)
Minimum temperature yesterday: 14 °F (at 7:20 am)
Average temperature yesterday: 25 °F

High & Low Weather Summary for the Past Weeks

 TemperatureHumidityPressure
High41 °F (Jan 11, 5:50 pm)100% (Jan 7, 6:20 pm)30.69 "Hg (Jan 7, 6:20 pm)
Low14 °F (Jan 17, 10:50 pm)50% (Jan 15, 8:06 pm)28.91 "Hg (Jan 13, 3:20 am)
Average28 °F89%30.15 "Hg
* Reported Jan 7 6:20 pm — Jan 22 6:20 pm, Höxter, Weather by CustomWeather, © 2017

Note: Actual official high and low records may vary slightly from our data, if they occured in-between our weather recording intervals... More about our weather records

Advertising

Höxter Weather History for the Previous 24 Hours

Scroll right to see more
 ConditionsComfort  
Time TempWeatherWind HumidityBarometerVisibility
6:20 pm
Sun, Jan 22
21 °FClear.2 mph93%30.24 "Hg5 mi
5:50 pm21 °FClear.1 mph100%30.24 "Hg5 mi
5:20 pm23 °FClear.2 mph93%30.24 "Hg5 mi
4:50 pm25 °FClear.1 mph93%30.24 "Hg5 mi
4:20 pm27 °FClear.2 mph93%30.24 "Hg5 mi
3:50 pm27 °FClear.No wind86%30.24 "Hg4 mi
3:20 pm28 °FClear.2 mph80%30.24 "Hg4 mi
2:50 pm27 °FClear.2 mph86%30.24 "Hg4 mi
2:20 pm27 °FClear.3 mph86%30.27 "Hg4 mi
1:50 pm27 °FIce fog.3 mph86%30.27 "Hg4 mi
1:20 pm25 °FPassing clouds.3 mph100%30.27 "Hg4 mi
12:50 pm23 °FIce fog.2 mph100%30.30 "Hg3 mi
12:20 pm23 °FSleet. Ice fog.2 mph100%30.30 "Hg3 mi
11:50 am23 °FIce fog.2 mph100%30.30 "Hg1 mi
11:20 am21 °FIce fog.3 mph100%30.30 "Hg1 mi
10:50 am21 °FIce fog.2 mph93%30.33 "Hg1 mi
10:30 am19 °FIce fog.3 mph100%30.33 "Hg1 mi
10:20 am19 °FIce fog.2 mph100%30.33 "Hg0 mi
9:50 am18 °FIce fog.3 mph100%30.33 "Hg1 mi
9:20 am18 °FIce fog.2 mph100%30.33 "Hg0 mi
8:50 am18 °FIce fog.5 mph93%30.33 "Hg0 mi
8:20 am18 °FIce fog.3 mph93%30.33 "Hg0 mi
7:50 am16 °FIce fog.2 mph100%30.33 "Hg0 mi
7:20 am16 °FIce fog.2 mph100%30.33 "Hg0 mi
8:50 pm
Sat, Jan 21
27 °FClear.1 mph80%30.39 "Hg10 mi
8:20 pm27 °FClear.2 mph80%30.39 "Hg10 mi
7:50 pm25 °FPassing clouds.3 mph74%30.39 "HgN/A
7:20 pm27 °FClear.2 mph74%30.39 "Hg10 mi
Weather by CustomWeather, © 2017

See weather overviewHow to use our weather pages